| time (UTC) | temp F | wind direction | speed MPH | gust MPH | rain 1hr in | rain 24hr in | rain mn in | humidity % | barometer mb |
| 20260507114220 | 45 | 181 | 6.0 | 13.0 | 0.00 | 0.00 | 0.00 | 48 | 1015.8 |
| 20260507113217 | 45 | 229 | 7.0 | 10.0 | 0.00 | 0.00 | 0.00 | 49 | 1015.7 |
| 20260507112238 | 45 | 249 | 7.0 | 14.0 | 0.00 | 0.00 | 0.00 | 48 | 1015.7 |
| 20260507111218 | 46 | 279 | 6.0 | 12.0 | 0.00 | 0.00 | 0.00 | 46 | 1015.5 |
| 20260507110218 | 46 | 220 | 6.0 | 12.0 | 0.00 | 0.00 | 0.00 | 46 | 1015.5 |
| 20260507105238 | 46 | 249 | 7.0 | 13.0 | 0.00 | 0.00 | 0.00 | 46 | 1015.4 |
| 20260507104238 | 46 | 275 | 7.0 | 14.0 | 0.00 | 0.00 | 0.00 | 46 | 1015.6 |
| 20260507103218 | 45 | 272 | 6.0 | 8.0 | 0.00 | 0.00 | 0.00 | 47 | 1015.6 |
| 20260507102238 | 45 | 284 | 5.0 | 9.0 | 0.00 | 0.00 | 0.00 | 49 | 1015.7 |
| 20260507101216 | 45 | 264 | 4.0 | 11.0 | 0.00 | 0.00 | 0.00 | 48 | 1015.6 |
| 20260507100216 | 46 | 258 | 6.0 | 9.0 | 0.00 | 0.00 | 0.00 | 45 | 1015.6 |
| 20260507095219 | 45 | 254 | 6.0 | 9.0 | 0.00 | 0.00 | 0.00 | 47 | 1015.7 |
| 20260507094239 | 44 | 273 | 5.0 | 8.0 | 0.00 | 0.00 | 0.00 | 50 | 1015.8 |
| 20260507093219 | 44 | 228 | 4.0 | 7.0 | 0.00 | 0.00 | 0.00 | 50 | 1015.9 |
| 20260507092220 | 44 | 233 | 7.0 | 12.0 | 0.00 | 0.00 | 0.00 | 49 | 1015.8 |
| 20260507091217 | 45 | 204 | 6.0 | 11.0 | 0.00 | 0.00 | 0.00 | 47 | 1015.9 |
| 20260507090217 | 45 | 243 | 4.0 | 6.0 | 0.00 | 0.00 | 0.00 | 47 | 1015.9 |
| 20260507085217 | 45 | 247 | 8.0 | 16.0 | 0.00 | 0.00 | 0.00 | 44 | 1015.9 |
| 20260507084217 | 45 | 259 | 9.0 | 13.0 | 0.00 | 0.00 | 0.00 | 44 | 1015.7 |
| 20260507083217 | 45 | 241 | 7.0 | 14.0 | 0.00 | 0.00 | 0.00 | 44 | 1015.7 |
| 20260507082217 | 44 | 237 | 7.0 | 13.0 | 0.00 | 0.00 | 0.00 | 44 | 1015.7 |
| 20260507081221 | 44 | 226 | 6.0 | 10.0 | 0.00 | 0.00 | 0.00 | 46 | 1015.8 |
| 20260507080218 | 44 | 211 | 8.0 | 11.0 | 0.00 | 0.00 | 0.00 | 47 | 1015.9 |
| 20260507075218 | 43 | 255 | 8.0 | 17.0 | 0.00 | 0.00 | 0.00 | 46 | 1016.2 |
| 20260507074218 | 43 | 219 | 6.0 | 10.0 | 0.00 | 0.00 | 0.00 | 47 | 1016.3 |
| 20260507073218 | 43 | 280 | 6.0 | 11.0 | 0.00 | 0.00 | 0.00 | 45 | 1016.3 |
| 20260507072218 | 43 | 291 | 6.0 | 17.0 | 0.00 | 0.00 | 0.00 | 44 | 1016.3 |
| 20260507071239 | 43 | 236 | 8.0 | 16.0 | 0.00 | 0.00 | 0.00 | 45 | 1016.4 |
| 20260507070219 | 42 | 257 | 7.0 | 12.0 | 0.00 | 0.00 | 0.00 | 47 | 1016.6 |
| 20260507065219 | 43 | 130 | 3.0 | 5.0 | 0.00 | 0.00 | 0.00 | 45 | 1017.1 |
| 20260507064222 | 43 | 281 | 3.0 | 6.0 | 0.00 | 0.00 | 0.00 | 46 | 1017.2 |
| 20260507063216 | 43 | 144 | 4.0 | 7.0 | 0.00 | 0.00 | 0.00 | 44 | 1017.0 |
| 20260507062237 | 42 | 183 | 7.0 | 11.0 | 0.00 | 0.00 | 0.00 | 45 | 1017.0 |
| 20260507061220 | 41 | 119 | 4.0 | 8.0 | 0.00 | 0.00 | 0.00 | 45 | 1017.1 |
| 20260507060223 | 40 | 136 | 5.0 | 5.0 | 0.00 | 0.00 | 0.00 | 52 | 1017.2 |
| 20260507055233 | 40 | 160 | 5.0 | 6.0 | 0.00 | 0.00 | 0.00 | 51 | 1017.1 |
| 20260507054228 | 39 | 281 | 2.0 | 3.0 | 0.00 | 0.00 | 0.00 | 50 | 1017.2 |
| 20260507053227 | 38 | 119 | 4.0 | 5.0 | 0.00 | 0.00 | 0.00 | 56 | 1017.3 |
| 20260507052217 | 39 | 195 | 2.0 | 2.0 | 0.00 | 0.00 | 0.00 | 54 | 1017.2 |
| 20260507051240 | 36 | 87 | 2.0 | 3.0 | 0.00 | 0.00 | 0.00 | 64 | 1017.4 |
| 20260507050248 | 37 | 335 | 1.0 | 2.0 | 0.00 | 0.00 | 0.00 | 64 | 1017.4 |
| 20260507045228 | 37 | 48 | 4.0 | 6.0 | 0.00 | 0.00 | 0.00 | 59 | 1017.2 |
| 20260507044218 | 35 | 110 | 4.0 | 5.0 | 0.00 | 0.00 | 0.00 | 65 | 1017.2 |
| 20260507043230 | 34 | 135 | 4.0 | 5.0 | 0.00 | 0.00 | 0.00 | 77 | 1017.5 |
| 20260507042230 | 34 | 169 | 2.0 | 3.0 | 0.00 | 0.00 | 0.00 | 78 | 1017.5 |
| 20260507041230 | 34 | 138 | 1.0 | 2.0 | 0.00 | 0.00 | 0.00 | 79 | 1017.5 |
| 20260507040230 | 33 | 74 | 2.0 | 2.0 | 0.00 | 0.00 | 0.00 | 82 | 1017.5 |
| 20260507035231 | 33 | 64 | 1.0 | 2.0 | 0.00 | 0.00 | 0.00 | 86 | 1017.9 |
| 20260507034251 | 33 | 134 | 2.0 | 2.0 | 0.00 | 0.00 | 0.00 | 85 | 1017.9 |
| 20260507033231 | 34 | 168 | 1.0 | 1.0 | 0.00 | 0.00 | 0.00 | 86 | 1017.8 |
| 20260507032231 | 33 | 134 | 1.0 | 2.0 | 0.00 | 0.00 | 0.00 | 86 | 1017.7 |
| 20260507031231 | 33 | 167 | 2.0 | 4.0 | 0.00 | 0.00 | 0.00 | 86 | 1017.6 |
| 20260507030219 | 33 | 277 | 1.0 | 2.0 | 0.00 | 0.00 | 0.00 | 86 | 1017.6 |
| 20260507025217 | 33 | 146 | 2.0 | 3.0 | 0.00 | 0.00 | 0.00 | 86 | 1017.6 |
| 20260507024230 | 33 | 177 | 5.0 | 6.0 | 0.00 | 0.00 | 0.00 | 86 | 1017.5 |
| 20260507023231 | 33 | 171 | 5.0 | 6.0 | 0.00 | 0.00 | 0.00 | 86 | 1017.3 |
| 20260507022230 | 33 | 180 | 4.0 | 5.0 | 0.00 | 0.00 | 0.00 | 86 | 1017.3 |
| 20260507021232 | 33 | 163 | 4.0 | 4.0 | 0.00 | 0.00 | 0.00 | 86 | 1017.3 |
| 20260507020220 | 33 | 162 | 4.0 | 5.0 | 0.00 | 0.00 | 0.00 | 86 | 1017.2 |
| 20260507015220 | 33 | 168 | 5.0 | 6.0 | 0.00 | 0.00 | 0.00 | 85 | 1017.1 |
| 20260507014220 | 34 | 155 | 5.0 | 8.0 | 0.00 | 0.00 | 0.00 | 85 | 1017.2 |
| 20260507013221 | 34 | 160 | 5.0 | 7.0 | 0.00 | 0.00 | 0.00 | 83 | 1017.3 |
| 20260507012221 | 35 | 164 | 6.0 | 8.0 | 0.00 | 0.00 | 0.00 | 81 | 1017.4 |
| 20260507011221 | 35 | 157 | 5.0 | 6.0 | 0.00 | 0.00 | 0.00 | 81 | 1017.5 |
| 20260507010342 | 35 | 157 | 6.0 | 7.0 | 0.00 | 0.00 | 0.00 | 80 | 1017.6 |
| 20260507005222 | 36 | 161 | 5.0 | 6.0 | 0.00 | 0.00 | 0.00 | 80 | 1017.6 |
| 20260507004222 | 36 | 175 | 5.0 | 7.0 | 0.00 | 0.00 | 0.00 | 80 | 1017.7 |
| 20260507003223 | 36 | 169 | 5.0 | 8.0 | 0.00 | 0.00 | 0.00 | 79 | 1017.7 |
| 20260507002222 | 36 | 172 | 5.0 | 6.0 | 0.00 | 0.00 | 0.00 | 78 | 1017.8 |
| 20260507001216 | 36 | 158 | 4.0 | 6.0 | 0.00 | 0.00 | 0.00 | 78 | 1017.8 |
| 20260507000219 | 0 | 160 | 6.0 | 8.0 | 0.00 | 0.00 | 0.00 | ||
| 20260506235233 | 36 | 143 | 6.0 | 8.0 | 0.00 | 0.00 | 0.00 | 78 | 1017.9 |
| 20260506234234 | 35 | 162 | 6.0 | 7.0 | 0.00 | 0.00 | 0.00 | 77 | 1017.9 |
| 20260506233232 | 35 | 158 | 6.0 | 7.0 | 0.00 | 0.00 | 0.00 | 76 | 1017.9 |
| 20260506232233 | 35 | 165 | 7.0 | 9.0 | 0.00 | 0.00 | 0.00 | 77 | 1017.8 |
| 20260506231227 | 35 | 163 | 6.0 | 8.0 | 0.00 | 0.00 | 0.00 | 78 | 1017.9 |
| 20260506230227 | 34 | 160 | 6.0 | 7.0 | 0.00 | 0.00 | 0.00 | 79 | 1018.0 |
| 20260506225228 | 34 | 134 | 5.0 | 8.0 | 0.00 | 0.00 | 0.00 | 79 | 1017.9 |
| 20260506224228 | 34 | 152 | 6.0 | 7.0 | 0.00 | 0.00 | 0.00 | 78 | 1018.1 |
| 20260506223221 | 0 | 167 | 6.0 | 8.0 | 0.00 | 0.00 | 0.00 | ||
| 20260506222228 | 34 | 143 | 6.0 | 8.0 | 0.00 | 0.00 | 0.00 | 76 | 1018.2 |
| 20260506221248 | 34 | 152 | 6.0 | 8.0 | 0.00 | 0.00 | 0.00 | 77 | 1018.4 |
| 20260506220248 | 35 | 150 | 6.0 | 8.0 | 0.00 | 0.00 | 0.00 | 76 | 1018.4 |
| 20260506215228 | 35 | 157 | 6.0 | 8.0 | 0.00 | 0.00 | 0.00 | 74 | 1018.4 |
| 20260506214228 | 35 | 163 | 3.0 | 5.0 | 0.00 | 0.00 | 0.00 | 74 | 1018.5 |
| 20260506213228 | 36 | 148 | 3.0 | 4.0 | 0.00 | 0.00 | 0.00 | 70 | 1018.5 |
| 20260506212249 | 35 | 159 | 3.0 | 5.0 | 0.00 | 0.00 | 0.00 | 72 | 1018.6 |
| 20260506211230 | 35 | 134 | 2.0 | 4.0 | 0.00 | 0.00 | 0.00 | 73 | 1018.6 |
| 20260506210239 | 35 | 109 | 4.0 | 5.0 | 0.00 | 0.00 | 0.00 | 74 | 1018.7 |
| 20260506205220 | 36 | 139 | 4.0 | 5.0 | 0.00 | 0.00 | 0.00 | 71 | 1018.8 |
| 20260506204223 | 37 | 70 | 2.0 | 3.0 | 0.00 | 0.00 | 0.00 | 64 | 1019.0 |
| 20260506203220 | 35 | 156 | 4.0 | 6.0 | 0.00 | 0.00 | 0.00 | 73 | 1019.1 |
| 20260506202220 | 35 | 115 | 3.0 | 4.0 | 0.00 | 0.00 | 0.00 | 76 | 1019.2 |
| 20260506201223 | 36 | 157 | 3.0 | 3.0 | 0.00 | 0.00 | 0.00 | 72 | 1019.1 |
| 20260506200223 | 36 | 138 | 3.0 | 4.0 | 0.00 | 0.00 | 0.00 | 73 | 1019.2 |
| 20260506195223 | 38 | 177 | 2.0 | 4.0 | 0.00 | 0.00 | 0.00 | 67 | 1019.3 |
| 20260506194224 | 35 | 77 | 1.0 | 3.0 | 0.00 | 0.00 | 0.00 | 75 | 1019.4 |
| 20260506193220 | 35 | 139 | 1.0 | 2.0 | 0.00 | 0.00 | 0.00 | 77 | 1019.4 |
| 20260506192223 | 35 | 113 | 3.0 | 4.0 | 0.00 | 0.00 | 0.00 | 79 | 1019.5 |
| 20260506191221 | 35 | 100 | 3.0 | 4.0 | 0.00 | 0.00 | 0.00 | 79 | 1019.5 |
| 20260506190221 | 36 | 61 | 3.0 | 5.0 | 0.00 | 0.00 | 0.00 | 79 | 1019.6 |
| 20260506185224 | 36 | 54 | 2.0 | 3.0 | 0.00 | 0.00 | 0.00 | 81 | 1019.7 |
| 20260506184221 | 36 | 72 | 1.0 | 2.0 | 0.00 | 0.00 | 0.00 | 80 | 1019.7 |
| 20260506183224 | 35 | 77 | 2.0 | 2.0 | 0.00 | 0.00 | 0.00 | 82 | 1020.0 |
| 20260506182225 | 34 | 24 | 4.0 | 4.0 | 0.00 | 0.00 | 0.00 | 86 | 1019.9 |
| 20260506181225 | 34 | 96 | 2.0 | 2.0 | 0.00 | 0.00 | 0.00 | 86 | 1019.9 |
| 20260506180245 | 34 | 101 | 1.0 | 2.0 | 0.00 | 0.00 | 0.00 | 86 | 1019.8 |
| 20260506175235 | 35 | 144 | 2.0 | 2.0 | 0.00 | 0.00 | 0.00 | 85 | 1019.8 |
| 20260506174222 | 34 | 135 | 4.0 | 5.0 | 0.00 | 0.00 | 0.00 | 87 | 1019.8 |
| 20260506173255 | 33 | 143 | 2.0 | 3.0 | 0.00 | 0.00 | 0.00 | 87 | 1019.8 |
| 20260506172235 | 32 | 158 | 2.0 | 2.0 | 0.00 | 0.00 | 0.00 | 88 | 1019.7 |
| 20260506171226 | 32 | 164 | 2.0 | 3.0 | 0.00 | 0.00 | 0.00 | 88 | 1019.7 |
| 20260506170226 | 31 | 161 | 2.0 | 2.0 | 0.00 | 0.00 | 0.00 | 89 | 1019.7 |
| 20260506165226 | 31 | 108 | 3.0 | 4.0 | 0.00 | 0.00 | 0.00 | 89 | 1019.5 |
| 20260506164246 | 31 | 133 | 2.0 | 2.0 | 0.00 | 0.00 | 0.00 | 89 | 1019.5 |
| 20260506163226 | 31 | 138 | 1.0 | 2.0 | 0.00 | 0.00 | 0.00 | 89 | 1019.2 |
| 20260506162227 | 32 | 140 | 2.0 | 2.0 | 0.00 | 0.00 | 0.00 | 89 | 1019.0 |
| 20260506161247 | 31 | 153 | 1.0 | 2.0 | 0.00 | 0.00 | 0.00 | 89 | 1018.8 |
| 20260506160227 | 31 | 151 | 1.0 | 2.0 | 0.00 | 0.00 | 0.00 | 89 | 1018.9 |
| 20260506155227 | 31 | 153 | 1.0 | 2.0 | 0.00 | 0.00 | 0.00 | 90 | 1018.8 |
| 20260506154227 | 30 | 147 | 1.0 | 2.0 | 0.00 | 0.00 | 0.00 | 90 | 1018.8 |
| 20260506153228 | 30 | 154 | 1.0 | 1.0 | 0.00 | 0.00 | 0.00 | 90 | 1018.8 |
| 20260506152227 | 30 | 149 | 1.0 | 2.0 | 0.00 | 0.00 | 0.00 | 90 | 1018.6 |
| 20260506151228 | 30 | 133 | 2.0 | 2.0 | 0.00 | 0.00 | 0.00 | 90 | 1018.6 |
| 20260506150248 | 30 | 149 | 1.0 | 2.0 | 0.00 | 0.00 | 0.00 | 90 | 1018.5 |
| 20260506145228 | 30 | 140 | 1.0 | 1.0 | 0.00 | 0.00 | 0.00 | 91 | 1018.4 |
| 20260506144228 | 29 | 154 | 1.0 | 1.0 | 0.00 | 0.00 | 0.00 | 92 | 1018.4 |
| 20260506143228 | 29 | 134 | 1.0 | 2.0 | 0.00 | 0.00 | 0.00 | 92 | 1018.4 |
| 20260506142249 | 29 | 141 | 1.0 | 2.0 | 0.00 | 0.00 | 0.00 | 92 | 1018.3 |
| 20260506141229 | 29 | 126 | 1.0 | 2.0 | 0.00 | 0.00 | 0.00 | 92 | 1018.2 |
| 20260506140229 | 29 | 149 | 1.0 | 1.0 | 0.00 | 0.00 | 0.00 | 93 | 1018.2 |
| 20260506135229 | 30 | 150 | 1.0 | 1.0 | 0.00 | 0.00 | 0.00 | 93 | 1018.2 |
| 20260506134229 | 30 | 144 | 1.0 | 1.0 | 0.00 | 0.00 | 0.00 | 94 | 1018.1 |
| 20260506133229 | 30 | 144 | 1.0 | 1.0 | 0.00 | 0.00 | 0.00 | 94 | 1018.0 |
| 20260506132230 | 30 | 140 | 1.0 | 2.0 | 0.00 | 0.00 | 0.00 | 94 | 1017.8 |
| 20260506131230 | 29 | 140 | 1.0 | 2.0 | 0.00 | 0.00 | 0.00 | 94 | 1017.7 |
| 20260506130230 | 29 | 141 | 1.0 | 1.0 | 0.00 | 0.00 | 0.00 | 94 | 1017.6 |
| 20260506125239 | 29 | 140 | 1.0 | 2.0 | 0.00 | 0.00 | 0.00 | 94 | 1017.4 |
| 20260506124319 | 29 | 136 | 1.0 | 2.0 | 0.00 | 0.00 | 0.00 | 94 | 1017.2 |
| 20260506123259 | 29 | 134 | 1.0 | 2.0 | 0.00 | 0.00 | 0.00 | 94 | 1017.0 |
| 20260506122239 | 28 | 144 | 1.0 | 1.0 | 0.00 | 0.00 | 0.00 | 94 | 1017.1 |
| 20260506121300 | 28 | 136 | 1.0 | 1.0 | 0.00 | 0.00 | 0.00 | 94 | 1017.1 |
| 20260506120251 | 28 | 137 | 1.0 | 2.0 | 0.00 | 0.00 | 0.00 | 94 | 1017.1 |
| 20260506115231 | 28 | 139 | 1.0 | 2.0 | 0.00 | 0.00 | 0.00 | 94 | 1016.9 |